Simultaneous Nadir Overpasses (SNOs) Predictions

Prediction of SNOs between NPP and TERRA Satellite Orbit:

Table of predicted SNOs for the next 14.0 days since TLE Epoch: 6/4/2022
Index Date (NPP) Time (NPP) Lat,Lon (NPP) SZA (NPP ) Date (TERRA) Time (TERRA) Lat,Lon (TERRA) SZA (TERRA ) Distance(km) Time Diff (sec)
1 06/06/2022 19:19:24 -69.63, 67.16 133.16 06/06/2022 19:20:24 -69.65, 67.23 133.15 3.58 60
2 06/06/2022 20:10:08 69.51,-125.35 46.71 06/06/2022 20:09:52 69.49,-125.34 46.69 2.52 16
3 06/06/2022 21:00:40 -68.89, 42.84 133.93 06/06/2022 20:59:30 -68.94, 41.57 133.86 50.90 70
4 06/09/2022 11:36:22 -69.59,-177.02 133.45 06/09/2022 11:36:51 -69.59,-176.99 133.45 1.25 29
5 06/09/2022 12:27:06 69.47, -9.54 46.43 06/09/2022 12:26:18 69.47, -9.49 46.44 1.87 48
6 06/12/2022 03:02:38 69.65, 131.33 46.43 06/12/2022 03:03:48 69.63, 131.30 46.40 2.96 70
7 06/12/2022 03:53:20 -69.55, -61.21 133.67 06/12/2022 03:53:18 -69.52, -61.20 133.71 3.57 2
8 06/12/2022 04:44:00 69.23, 106.57 45.99 06/12/2022 04:42:47 69.29, 106.14 46.07 18.40 73
9 06/14/2022 19:19:36 69.62,-112.87 46.26 06/14/2022 19:20:14 69.61,-112.85 46.24 1.58 38
10 06/14/2022 20:10:18 -69.52, 54.59 133.85 06/14/2022 20:09:44 -69.51, 54.65 133.86 2.69 34
11 06/17/2022 10:45:56 -70.08,-165.10 133.36 06/17/2022 10:47:07 -69.99,-164.10 133.48 39.19 71
12 06/17/2022 11:36:32 69.55, 3.00 46.09 06/17/2022 11:36:40 69.54, 2.93 46.08 2.70 8
13 06/17/2022 12:27:14 -69.45, 170.46 134.02 06/17/2022 12:26:10 -69.44, 170.43 134.02 1.29 64



Historial Predications of SNOs between NPP and TERRA
